Preview of NWS' New Version of Forecast
This preview is not operational and should not be used for support decisions.

Regional Weather Roundup (RWR)

Issued by National Weather Service (NWS)

                            
000
ASUS45 KABQ 221910
RWRNM 
NEW MEXICO REGIONAL WEATHER ROUNDUP
NATIONAL WEATHER SERVICE ALBUQUERQUE NM
100 PM MDT MON JUL 22 2019

NOTE: "FAIR" MEANS FEW OR NO CLOUDS BELOW 12,000 FEET AGL WITH NO
       SIGNIFICANT WEATHER OR OBSTRUCTIONS TO VISION.

      THIS PRODUCT IS RELEASED AS TWO VERSIONS.  ONE VERSION NEAR
      THE TOP OF THE HOUR CONTAINING PRELIMINARY DATA FROM ALBUQUERQUE
      AND OTHER STATIONS.  A FINAL VERSION WITH ADDITIONAL DATA IS 
      ISSUED ABOUT 10 MINUTES AFTER THE HOUR.
 
NMZ501-503-504-510>518-222000-
NORTHWEST PLATEAU/NORTHCENTRAL MOUNTAINS
  
CITY           SKY/WX    TMP DP  RH WIND       PRES   REMARKS
FARMINGTON     FAIR      91  44  19 SE10      30.25F                  
LOS ALAMOS       N/A     80  43  26 S13G21    30.45F                  
SANTA FE       FAIR      83  47  28 S17G31    30.38F                  
ANGEL FIRE       N/A     71  48  43 S13       30.55F                  

$$
NMZ402-403-502-505>509-222000-
WESTCENTRAL MOUNTAINS/SOUTHWEST MOUNTAINS
  
CITY           SKY/WX    TMP DP  RH WIND       PRES   REMARKS
GALLUP         FAIR      89  42  19 MISG      30.33F                  
GRANTS         FAIR      85  46  25 SE17G30   30.39F                  
SILVER CITY    FAIR      86  50  29 S10G23    30.30F                  

$$
NMZ407-409-411-412-222000-
SOUTHERN DESERTS
  
CITY           SKY/WX    TMP DP  RH WIND       PRES   REMARKS
DEMING         FAIR      90  52  27 SE16G22   30.23F                  
LAS CRUCES     FAIR      90  53  28 SE20      30.24F                  
ALAMOGORDO     FAIR      90  48  24 W9        30.22F                  
T OR C         FAIR      90  51  26 E7        30.25F                  

$$
NMZ519>523-222000-
CENTRAL VALLEYS/CENTRAL HIGHLANDS
  
CITY           SKY/WX    TMP DP  RH WIND       PRES   REMARKS
ALBUQUERQUE    PTSUNNY   84  53  34 SE14G21   30.32F                  
DOUBLE EAGLE   PTSUNNY   84  50  30 SE12G17   30.36F                  
MORIARTY ARPT  FAIR      81  50  33 E6        30.43S                  
CLINES CORNERS NOT AVBL                                               
BELEN          FAIR      86  48  26 SE17G25   30.31F                  
SOCORRO        FAIR      87  49  27 SE5G20    30.29F                  

$$
NMZ524>526-539-540-222000-
SOUTHCENTRAL MOUNTAINS
  
CITY           SKY/WX    TMP DP  RH WIND       PRES   REMARKS
RUIDOSO          N/A     68  55  64 S9G16     30.49F                  

$$
NMZ527>531-222000-
NORTHEAST HIGHLANDS/NORTHEAST PLAINS
  
CITY           SKY/WX    TMP DP  RH WIND       PRES   REMARKS
LAS VEGAS      FAIR      75  50  41 VRB6      30.47F                  
RATON          FAIR      77  49  37 MISG      30.41F                  
CLAYTON        FAIR      80  61  52 NE13G20   30.38S                  

$$
NMZ532>537-222000-
EASTCENTRAL PLAINS
  
CITY           SKY/WX    TMP DP  RH WIND       PRES   REMARKS
SANTA ROSA     MOCLDY    80  61  51 E8        30.36F                  
TUCUMCARI      CLOUDY    74  62  66 VRB3      30.33F                  
CANNON AFB     CLOUDY    72  60  67 NE12      30.35S                  
CLOVIS AIRPORT FAIR      79  59  50 E16       30.33F                  

$$
NMZ028-029-538-222000-
SOUTHEAST PLAINS
  
CITY           SKY/WX    TMP DP  RH WIND       PRES   REMARKS
ROSWELL        CLOUDY    77  64  64 N13       30.28S                  
ARTESIA        FAIR      81  66  61 N10G16    30.27F                  
CARLSBAD       PTSUNNY   84  64  50 NW15      30.20F                  
HOBBS          PTSUNNY   86  61  42 NE14G25   30.23S                  


$$